Weather History for Robinson, IL

Change the Weather History Date:

Tuesday, November 1, 2011

  Actual Average (KLWV) Record (KLWV)
Temperature  
Mean Temperature 50 °F 52 °F  
Max Temperature 69 °F 63 °F 82 °F (2000)
Min Temperature 30 °F 42 °F 24 °F (1993)
Degree Days  
Heating Degree Days 16 13  
Month to date heating degree days 13  
Since 1 July heating degree days 310  
Cooling Degree Days 0 0  
Month to date cooling degree days 0  
Year to date cooling degree days 1386  
Moisture  
Dew Point 32 °F    
Average Humidity 63    
Maximum Humidity 100    
Minimum Humidity 25    
Precipitation  
Precipitation 0.00 in 0.12 in 1.83 in (1969)
Month to date precipitation 0.12  
Year to date precipitation 36.64  
Sea Level Pressure  
Sea Level Pressure 30.20 in    
Wind  
Wind Speed 4 mph (South)    
Max Wind Speed 15 mph    
Max Gust Speed 21 mph    
Visibility 10 miles    
Events      
T = Trace of Precipitation, MM = Missing Value Source: NWS Daily Summary

Daily Weather History Graph

Daily Weather History Graph

Search for Another Location

Airport:

Trip Planner

Search our weather history database for the weather conditions in past years. The results will help you decide how hot, cold, wet, or windy it might be!

Date:

Astronomy

Nov. 01, 2011 Rise Set
Actual Time 7:17 AM CDT 5:50 PM CDT
Civil Twilight 6:50 AM CDT 6:17 PM CDT
Nautical Twilight 6:18 AM CDT 6:49 PM CDT
Astronomical Twilight 5:47 AM CDT 7:20 PM CDT
Moon 1:03 PM CDT (11/1) 11:32 PM CDT (11/1)
Length of Visible Light 11h 27m
Length of Day
10h 32m
Waxing Crescent, 40% of the Moon is Illuminated
Nov 1
Waxing Crescent
Nov 2
First Quarter
Nov 10
Full
Nov 18
Last Quarter
Nov 25
New

Hourly Weather History & Observations

Time (CDT) Temp. Windchill Dew Point Humidity Pressure Visibility Wind Dir Wind Speed Gust Speed Precip Events Conditions
12:35 AM 30.2 °F - 30.2 °F 100% 30.21 in 10.0 mi Calm Calm - N/A   Clear
12:55 AM 32.0 °F - 30.2 °F 93% 30.20 in 10.0 mi Calm Calm - N/A   Clear
1:15 AM 30.2 °F - 30.2 °F 100% 30.20 in 10.0 mi Calm Calm - N/A   Clear
1:35 AM 30.2 °F 26.7 °F 30.2 °F 100% 30.20 in 10.0 mi SW 3.5 mph - N/A   Clear
1:55 AM 30.2 °F 26.7 °F 30.2 °F 100% 30.21 in 10.0 mi SSW 3.5 mph - N/A   Clear
2:15 AM 32.0 °F - 32.0 °F 100% 30.21 in 10.0 mi Calm Calm - N/A   Clear
2:35 AM 30.2 °F - 30.2 °F 100% 30.21 in 10.0 mi Calm Calm - N/A   Clear
2:55 AM 32.0 °F - 30.2 °F 93% 30.21 in 10.0 mi Calm Calm - N/A   Clear
3:15 AM 30.2 °F - 28.4 °F 93% 30.21 in 10.0 mi Calm Calm - N/A   Clear
3:35 AM 30.2 °F - 28.4 °F 93% 30.21 in 10.0 mi Calm Calm - N/A   Clear
3:55 AM 30.2 °F - 28.4 °F 93% 30.21 in 10.0 mi Calm Calm - N/A   Clear
4:15 AM 30.2 °F - 30.2 °F 100% 30.21 in 10.0 mi Calm Calm - N/A   Clear
4:35 AM 30.2 °F - 30.2 °F 100% 30.21 in 10.0 mi Calm Calm - N/A   Clear
4:55 AM 30.2 °F - 30.2 °F 100% 30.22 in 10.0 mi Calm Calm - N/A   Clear
5:15 AM 30.2 °F - 30.2 °F 100% 30.22 in 10.0 mi Calm Calm - N/A   Clear
5:35 AM 32.0 °F - 30.2 °F 93% 30.22 in 10.0 mi Calm Calm - N/A   Clear
5:55 AM 30.2 °F - 30.2 °F 100% 30.22 in 10.0 mi Calm Calm - N/A   Clear
6:15 AM 32.0 °F - 30.2 °F 93% 30.22 in 10.0 mi Calm Calm - N/A   Clear
6:35 AM 30.2 °F - 30.2 °F 100% 30.22 in 7.0 mi Calm Calm - N/A   Clear
6:55 AM 30.2 °F - 28.4 °F 93% 30.23 in 7.0 mi Calm Calm - N/A   Clear
7:15 AM 30.2 °F - 30.2 °F 100% 30.23 in 3.0 mi Calm Calm - N/A   Clear
7:35 AM 32.0 °F - 30.2 °F 93% 30.23 in 7.0 mi Calm Calm - N/A   Clear
7:55 AM 32.0 °F - 32.0 °F 100% 30.24 in 7.0 mi Calm Calm - N/A   Clear
8:15 AM 33.8 °F - 33.8 °F 100% 30.24 in 7.0 mi Calm Calm - N/A   Clear
8:35 AM 39.2 °F - 35.6 °F 87% 30.24 in 10.0 mi Calm Calm - N/A   Clear
8:55 AM 44.6 °F 41.4 °F 35.6 °F 71% 30.23 in 10.0 mi SSE 5.8 mph - N/A   Clear
9:15 AM 46.4 °F 42.9 °F 35.6 °F 66% 30.24 in 10.0 mi SE 6.9 mph - N/A   Clear
9:35 AM 50.0 °F - 35.6 °F 58% 30.24 in 10.0 mi SSE 6.9 mph - N/A   Clear
9:55 AM 53.6 °F - 33.8 °F 47% 30.24 in 10.0 mi SSE 10.4 mph - N/A   Clear
10:15 AM 55.4 °F - 33.8 °F 44% 30.24 in 10.0 mi SSE 8.1 mph - N/A   Clear
10:35 AM 57.2 °F - 33.8 °F 41% 30.24 in 10.0 mi SSE 9.2 mph - N/A   Clear
10:55 AM 59.0 °F - 33.8 °F 39% 30.23 in 10.0 mi South 9.2 mph - N/A   Clear
11:15 AM 60.8 °F - 32.0 °F 34% 30.23 in 10.0 mi SSW 10.4 mph - N/A   Clear
11:35 AM 62.6 °F - 32.0 °F 32% 30.22 in 10.0 mi SSW 9.2 mph - N/A   Clear
11:55 AM 64.4 °F - 32.0 °F 30% 30.22 in 10.0 mi SSW 11.5 mph - N/A   Clear
12:15 PM 64.4 °F - 32.0 °F 30% 30.21 in 10.0 mi South 13.8 mph 19.6 mph N/A   Clear
12:35 PM 68.0 °F - 33.8 °F 28% 30.20 in 10.0 mi South 15.0 mph 18.4 mph N/A   Clear
12:55 PM 68.0 °F - 32.0 °F 26% 30.19 in 10.0 mi SSW 12.7 mph - N/A   Clear
1:15 PM 68.0 °F - 33.8 °F 28% 30.19 in 10.0 mi South 11.5 mph 17.3 mph N/A   Clear
1:35 PM 69.8 °F - 33.8 °F 27% 30.18 in 10.0 mi South 12.7 mph 17.3 mph N/A   Clear
1:55 PM 69.8 °F - 33.8 °F 27% 30.17 in 10.0 mi South 13.8 mph 20.7 mph N/A   Clear
2:15 PM 69.8 °F - 32.0 °F 25% 30.17 in 10.0 mi South 13.8 mph 18.4 mph N/A   Clear
2:35 PM 69.8 °F - 33.8 °F 27% 30.16 in 10.0 mi South 13.8 mph - N/A   Clear
2:55 PM 69.8 °F - 33.8 °F 27% 30.16 in 10.0 mi South 11.5 mph - N/A   Clear
3:15 PM 69.8 °F - 33.8 °F 27% 30.16 in 10.0 mi South 10.4 mph - N/A   Clear
3:35 PM 69.8 °F - 33.8 °F 27% 30.16 in 10.0 mi South 9.2 mph - N/A   Clear
3:55 PM 69.8 °F - 32.0 °F 25% 30.16 in 10.0 mi SSE 12.7 mph - N/A   Clear
4:15 PM 69.8 °F - 32.0 °F 25% 30.16 in 10.0 mi SSE 11.5 mph - N/A   Clear
4:35 PM 68.0 °F - 32.0 °F 26% 30.15 in 10.0 mi SSE 11.5 mph - N/A   Clear
4:55 PM 68.0 °F - 32.0 °F 26% 30.15 in 10.0 mi SSE 10.4 mph - N/A   Clear
5:15 PM 64.4 °F - 32.0 °F 30% 30.15 in 10.0 mi South 9.2 mph - N/A   Clear
5:35 PM 62.6 °F - 32.0 °F 32% 30.15 in 10.0 mi SSE 9.2 mph - N/A   Clear
5:55 PM 60.8 °F - 33.8 °F 36% 30.16 in 10.0 mi SSE 8.1 mph - N/A   Clear
6:15 PM 59.0 °F - 33.8 °F 39% 30.16 in 10.0 mi SE 6.9 mph - N/A   Clear
6:35 PM 55.4 °F - 33.8 °F 44% 30.16 in 10.0 mi SE 6.9 mph - N/A   Clear
6:55 PM 53.6 °F - 35.6 °F 51% 30.16 in 10.0 mi SE 5.8 mph - N/A   Clear
7:15 PM 51.8 °F - 35.6 °F 54% 30.16 in 10.0 mi SE 8.1 mph - N/A   Clear
7:35 PM 51.8 °F - 35.6 °F 54% 30.16 in 10.0 mi SE 8.1 mph - N/A   Clear
7:55 PM 51.8 °F - 35.6 °F 54% 30.17 in 10.0 mi SSE 5.8 mph - N/A   Clear
8:15 PM 50.0 °F - 35.6 °F 58% 30.17 in 10.0 mi SSE 5.8 mph - N/A   Clear
8:35 PM 50.0 °F - 35.6 °F 58% 30.16 in 10.0 mi SSE 4.6 mph - N/A   Clear
8:55 PM 50.0 °F - 33.8 °F 54% 30.17 in 10.0 mi SSE 3.5 mph - N/A   Clear
9:15 PM 51.8 °F - 33.8 °F 50% 30.17 in 10.0 mi SSE 5.8 mph - N/A   Clear
9:35 PM 50.0 °F - 33.8 °F 54% 30.17 in 10.0 mi SSE 6.9 mph - N/A   Clear
9:55 PM 50.0 °F - 35.6 °F 58% 30.17 in 10.0 mi SSE 6.9 mph - N/A   Clear
10:15 PM 50.0 °F - 35.6 °F 58% 30.18 in 10.0 mi SSE 6.9 mph - N/A   Clear
10:35 PM 50.0 °F - 35.6 °F 58% 30.18 in 10.0 mi SSE 8.1 mph - N/A   Clear
10:55 PM 50.0 °F - 33.8 °F 54% 30.18 in 10.0 mi SSE 6.9 mph - N/A   Clear
11:15 PM 46.4 °F 42.4 °F 33.8 °F 62% 30.18 in 10.0 mi SSE 8.1 mph - N/A   Clear
11:35 PM 50.0 °F - 33.8 °F 54% 30.18 in 10.0 mi SSE 8.1 mph - N/A   Clear
11:55 PM 48.2 °F - 33.8 °F 58% 30.18 in 10.0 mi SSE 5.8 mph - N/A   Clear